Waarnemingen

Advertentie
Mijn weer
UFS Deutsche Bucht, Duitsland (10007): temperatuur & dauwpunt: 12.11.2017 04:00:00 - 18.11.2017 04:00:00 (CET)UFS Deutsche Bucht, Duitsland (10007): windsnelheid & windstoten: 12.11.2017 04:00:00 - 18.11.2017 04:00:00 (CET)UFS Deutsche Bucht, Duitsland (10007): windrichting: 12.11.2017 04:00:00 - 18.11.2017 04:00:00 (CET)UFS Deutsche Bucht, Duitsland (10007): luchtdruk: 12.11.2017 04:00:00 - 18.11.2017 04:00:00 (CET)UFS Deutsche Bucht, Duitsland (10007): zicht: 12.11.2017 04:00:00 - 18.11.2017 04:00:00 (CET)UFS Deutsche Bucht, Duitsland (10007): Zonneschijnduur: 12.11.2017 04:00:00 - 18.11.2017 04:00:00 (CET)
Datum & Tijd tt [°C] td [°C] ff [km/u] ff [kn] fx [km/u] fx [kn] dd ppp [hPa] vv [km] sd [min]
18.11.2017 04:00:00 - - - - - - - - - -
18.11.2017 03:00:00 10,1 5,0 50 27 76 41 - 1016,0 10 0
18.11.2017 02:00:00 10,2 3,8 47 25 61 33 - 1016,5 10 0
18.11.2017 01:00:00 10,3 3,2 43 23 - - - 1017,6 10 0
18.11.2017 00:00:00 10,0 3,6 43 23 61 33 W 1018,4 10 0
17.11.2017 23:00:00 10,3 1,7 43 23 54 29 - 1018,9 10 0
17.11.2017 22:00:00 9,8 4,9 32 18 - - - 1019,7 10 0
17.11.2017 21:00:00 9,9 3,7 43 23 47 25 W 1020,4 10 0
17.11.2017 20:00:00 9,1 4,3 36 19 58 31 W 1021,2 10 0
17.11.2017 19:00:00 9,4 3,5 36 19 - - W 1021,8 9 0
17.11.2017 18:00:00 10,2 2,5 43 23 61 33 W 1021,9 10 0
17.11.2017 17:00:00 10,0 2,8 40 21 47 25 W 1022,7 10 0
17.11.2017 16:00:00 10,2 3,0 36 19 - - W 1022,7 10 18
17.11.2017 15:00:00 10,0 2,7 36 19 47 25 - 1023,0 10 24
17.11.2017 14:00:00 10,4 4,2 32 18 47 25 W 1023,8 10 48
17.11.2017 13:00:00 8,9 3,4 36 19 - - WZW 1024,2 10 24
17.11.2017 12:00:00 10,0 4,0 32 18 - - W 1024,4 2,8 54
17.11.2017 11:00:00 10,0 0,5 32 18 - - W 1024,6 10 54
17.11.2017 10:00:00 10,0 2,0 29 16 - - W 1024,4 10 12
17.11.2017 09:00:00 9,6 4,0 29 16 50 27 WNW 1024,4 10 6
17.11.2017 08:00:00 9,9 2,4 22 12 - - - 1024,1 10 0
17.11.2017 07:00:00 9,9 2,4 32 18 - - WNW 1023,9 10 0
17.11.2017 06:00:00 9,8 1,1 29 16 - - WNW 1023,8 10 0
17.11.2017 05:00:00 9,9 1,3 29 16 50 27 OZO 1023,6 10 0
17.11.2017 04:00:00 9,9 2,0 29 16 - - NW 1023,1 10 0
17.11.2017 03:00:00 9,9 1,2 40 21 47 25 - 1022,8 10 0
17.11.2017 02:00:00 10,0 0,6 40 21 54 29 - 1022,3 10 0
17.11.2017 01:00:00 10,1 0,1 40 21 - - WNW 1021,8 10 0
17.11.2017 00:00:00 10,2 3,4 36 19 58 31 NW 1021,5 10 0
16.11.2017 23:00:00 9,1 4,5 50 27 58 31 - 1020,9 7 0
16.11.2017 22:00:00 10,6 4,8 43 23 - - - 1020,2 10 0
16.11.2017 21:00:00 10,4 7,2 40 21 58 31 NW 1019,2 10 0
16.11.2017 20:00:00 10,8 7,2 47 25 58 31 NW 1018,2 9 0
16.11.2017 19:00:00 11,2 9,9 40 21 - - ZW 1017,4 4,4 0
16.11.2017 18:00:00 11,1 9,7 43 23 54 29 WZW 1017,6 6 0
16.11.2017 17:00:00 10,9 9,7 47 25 54 29 ZW 1017,8 4,4 0
16.11.2017 16:00:00 10,7 9,4 43 23 - - ZW 1018,2 7 0
16.11.2017 15:00:00 10,5 9,0 47 25 50 27 ZW 1018,7 8 0
16.11.2017 14:00:00 10,4 9,0 40 21 50 27 ZZW 1018,9 8 0
16.11.2017 13:00:00 10,2 9,0 40 21 - - ZZW 1019,3 8 0
16.11.2017 12:00:00 10,3 9,2 36 19 47 25 ZZW 1019,9 6 0
16.11.2017 11:00:00 10,1 9,3 40 21 47 25 ZZW 1020,1 3,9 0
16.11.2017 10:00:00 10,2 9,3 36 19 - - ZZW 1020,3 5 0
16.11.2017 09:00:00 10,0 9,2 36 19 - - ZZW 1020,4 3,1 0
16.11.2017 08:00:00 10,0 9,3 32 18 - - ZW 1020,4 4,1 0
16.11.2017 07:00:00 10,0 9,1 32 18 - - ZZW 1020,4 9 0
16.11.2017 06:00:00 9,8 8,9 32 18 - - ZZW 1020,7 4,7 0
16.11.2017 05:00:00 9,9 9,0 29 16 - - ZZW 1021,5 6 0
16.11.2017 04:00:00 9,7 8,9 29 16 - - ZZW 1022,1 8 0
16.11.2017 03:00:00 9,8 8,8 29 16 - - - 1022,4 7 0
16.11.2017 02:00:00 9,9 8,9 25 14 - - - 1022,6 5 0
16.11.2017 01:00:00 10,6 9,4 22 12 - - OZO 1023,1 5 0
16.11.2017 00:00:00 10,3 9,1 18 10 - - Z 1023,5 10 0
15.11.2017 23:00:00 10,4 8,3 18 10 - - Z 1023,8 10 0
15.11.2017 22:00:00 10,9 7,3 14 8 - - - 1024,0 10 0
15.11.2017 21:00:00 10,4 6,9 14 8 - - ZZO 1024,2 10 0
15.11.2017 20:00:00 11,0 5,9 4 2 - - OZO 1024,3 10 0
15.11.2017 19:00:00 10,8 5,6 4 2 - - Z 1024,6 10 0
15.11.2017 18:00:00 11,0 5,3 4 2 - - NNW 1024,4 10 0
15.11.2017 17:00:00 11,0 5,3 11 6 - - NNW 1024,3 10 0
15.11.2017 16:00:00 11,1 6,5 11 6 - - NW 1024,3 10 0
15.11.2017 15:00:00 11,2 5,4 14 8 - - NW 1024,0 10 18
15.11.2017 14:00:00 11,3 5,9 18 10 - - NW 1023,8 10 42
15.11.2017 13:00:00 11,3 6,3 22 12 - - NW 1023,7 10 30
15.11.2017 12:00:00 11,4 7,0 22 12 - - WNW 1023,4 10 54
15.11.2017 11:00:00 11,2 6,7 22 12 - - WNW 1023,1 10 54
15.11.2017 10:00:00 11,2 6,8 22 12 - - NW 1022,7 10 18
15.11.2017 09:00:00 11,3 7,8 25 14 - - NW 1022,1 10 0
15.11.2017 08:00:00 11,5 8,2 25 14 - - WNW 1021,4 10 0
15.11.2017 07:00:00 10,8 8,9 22 12 - - WNW 1021,0 10 0
15.11.2017 06:00:00 11,3 9,4 22 12 - - W 1020,6 10 0
15.11.2017 05:00:00 11,1 9,5 18 10 - - W 1020,5 10 0
15.11.2017 04:00:00 10,2 9,0 7 4 - - WZW 1020,6 10 0
15.11.2017 03:00:00 10,0 8,8 7 4 - - - 1020,3 10 0
15.11.2017 02:00:00 10,5 8,6 18 10 - - - 1020,7 10 0
15.11.2017 01:00:00 10,7 8,1 22 12 - - Z 1020,9 10 0
15.11.2017 00:00:00 11,4 7,5 18 10 - - WZW 1020,8 10 0
14.11.2017 23:00:00 11,4 7,5 18 10 - - W 1020,7 10 0
14.11.2017 22:00:00 11,3 7,4 18 10 - - - 1020,6 10 0
14.11.2017 21:00:00 11,3 7,1 18 10 - - W 1020,4 10 0
14.11.2017 20:00:00 11,3 7,2 22 12 - - W 1020,0 10 0
14.11.2017 19:00:00 11,4 7,2 22 12 - - WNW 1019,7 10 0
14.11.2017 18:00:00 11,5 7,4 25 14 - - WNW 1019,1 10 0
14.11.2017 17:00:00 11,4 7,3 25 14 - - WNW 1018,7 10 6
14.11.2017 16:00:00 11,6 7,2 25 14 - - NW 1018,2 1,2 42
14.11.2017 15:00:00 11,7 8,1 32 18 47 25 NW 1017,4 10 6
14.11.2017 14:00:00 10,9 9,4 32 18 65 35 NW 1016,7 10 0
14.11.2017 13:00:00 11,5 10,0 43 23 - - W 1016,2 10 0
14.11.2017 12:00:00 10,6 9,6 50 27 68 37 WZW 1016,0 4,4 0
14.11.2017 11:00:00 10,0 8,5 50 27 72 39 WZW 1016,0 3,4 0
14.11.2017 10:00:00 10,0 6,1 58 31 - - WZW 1016,1 10 0
14.11.2017 09:00:00 10,2 4,0 54 29 72 39 WZW 1016,2 10 0
14.11.2017 08:00:00 9,8 2,8 54 29 65 35 WZW 1016,3 10 0
14.11.2017 07:00:00 10,0 3,9 50 27 - - WZW 1016,6 10 0
14.11.2017 06:00:00 9,6 2,0 43 23 58 31 W 1017,1 10 0
14.11.2017 05:00:00 8,7 4,8 40 21 50 27 WZW 1017,6 6 0
14.11.2017 04:00:00 9,6 2,5 32 18 - - WZW 1018,3 10 0
14.11.2017 03:00:00 9,6 3,4 29 16 - - - 1018,9 10 0
14.11.2017 02:00:00 9,4 2,4 25 14 - - - 1019,4 10 0
14.11.2017 01:00:00 9,2 1,5 22 12 - - WNW 1019,4 10 0
14.11.2017 00:00:00 9,4 1,0 25 14 - - NW 1019,4 10 0
13.11.2017 23:00:00 8,7 2,5 11 6 - - NNW 1019,5 10 0
13.11.2017 22:00:00 7,5 3,1 14 8 - - - 1019,6 9 0
13.11.2017 21:00:00 8,2 3,7 25 14 - - - 1019,3 10 0
13.11.2017 20:00:00 8,9 3,5 25 14 - - NNW 1019,0 10 0
13.11.2017 19:00:00 8,9 4,2 29 16 - - NNW 1018,7 10 0
13.11.2017 18:00:00 9,2 2,7 22 12 - - - 1018,2 10 0
13.11.2017 17:00:00 9,1 3,8 18 10 - - N 1017,8 10 0
13.11.2017 16:00:00 9,2 2,2 11 6 - - N 1017,3 10 12
13.11.2017 15:00:00 9,2 1,7 14 8 - - NNO 1016,8 10 6
13.11.2017 14:00:00 9,3 4,6 22 12 - - NO 1016,3 10 24
13.11.2017 13:00:00 9,9 2,7 29 16 - - NNO 1015,7 10 42
13.11.2017 12:00:00 10,2 3,3 25 14 - - N 1015,2 10 60
13.11.2017 11:00:00 10,3 3,6 32 18 47 25 N 1014,5 10 42
13.11.2017 10:00:00 10,0 4,0 29 16 - - N 1014,1 10 0
13.11.2017 09:00:00 10,1 3,6 29 16 - - NNW 1013,1 10 0
13.11.2017 08:00:00 10,0 3,0 32 18 47 25 NNW 1012,0 10 0
13.11.2017 07:00:00 10,0 3,2 36 19 - - N 1011,3 10 0
13.11.2017 06:00:00 10,0 3,3 36 19 54 29 N 1010,4 10 0
13.11.2017 05:00:00 9,7 4,6 29 16 50 27 N 1009,5 10 0
13.11.2017 04:00:00 9,6 5,2 25 14 - - N 1008,7 10 0
13.11.2017 03:00:00 10,3 3,9 43 23 58 31 - 1007,6 10 0
13.11.2017 02:00:00 10,3 4,5 47 25 58 31 - 1006,8 10 0
13.11.2017 01:00:00 10,1 3,3 47 25 - - - 1005,8 10 0
13.11.2017 00:00:00 10,5 3,7 43 23 65 35 NNW 1005,0 10 0
12.11.2017 23:00:00 10,6 5,2 43 23 61 33 N 1004,0 10 0
12.11.2017 22:00:00 10,6 4,6 43 23 - - N 1003,1 10 0
12.11.2017 21:00:00 9,0 4,2 25 14 58 31 N 1002,6 10 0
12.11.2017 20:00:00 8,8 3,1 29 16 47 25 N 1001,6 10 0
12.11.2017 19:00:00 8,6 4,3 25 14 - - N 1001,0 10 0
12.11.2017 18:00:00 8,3 3,9 32 18 47 25 N 1000,3 10 0
12.11.2017 17:00:00 8,0 3,8 22 12 - - N 999,6 10 0
12.11.2017 16:00:00 7,5 3,5 25 14 - - NNO 999,1 10 0
12.11.2017 15:00:00 7,1 3,9 11 6 - - NNW 998,5 8 0
12.11.2017 14:00:00 5,9 2,7 7 4 - - WNW 998,2 6 0
12.11.2017 13:00:00 6,9 3,2 18 10 - - NNW 998,1 10 0
12.11.2017 12:00:00 6,5 2,8 22 12 - - NW 998,4 9 0
12.11.2017 11:00:00 7,9 3,0 11 6 - - NNW 998,1 10 0
12.11.2017 10:00:00 8,9 2,7 25 14 - - W 998,6 10 0
12.11.2017 09:00:00 8,1 4,2 32 18 54 29 ZW 999,2 10 0
12.11.2017 08:00:00 8,9 3,1 32 18 54 29 WNW 999,3 10 0
12.11.2017 07:00:00 9,4 2,7 32 18 - - W 999,9 10 0
12.11.2017 06:00:00 8,9 3,8 32 18 54 29 - 1000,7 10 0
12.11.2017 05:00:00 9,4 3,6 36 19 54 29 W 1001,4 10 0
12.11.2017 04:00:00 9,4 2,8 43 23 - - W 1001,8 10 0

tt = temperatuur
td = dauwpunt
ff = windsnelheid
fx = windstoten
dd = windrichting
ppp = luchtdruk
vv = zicht
sd = Zonneschijnduur

Weerstations in de omgeving